TVF30KT LFPO-LIPZ

Flight info

Callsign TVF30KT
Flight time N/A
Altitude 37000
Route OKASI DCT OKEKO DCT MOU DCT MADIV DCT MOKIP DCT TUFTA DCT GEVEA DCT ORSUD DCT BIBAN DCT GARLO DCT INVOP DCT SRN DCT DESIP DCT PEXUG DCT LEGLO DCT OSKOR DCT NEVNI DCT ELTAR DCT ADOSA L612 ALBET
Aircraft B738/M-SDE2E3FGHIRWXY/LB1

Departure

Time 2026-05-07 15:06
Airport Paris-Orly Airport (LFPO)

Arrival

Time N/A
Airport Venice Marco Polo Airport (LIPZ)
Time Latitude Longitude Altitude Speed Heading
2026-05-07 14:43 48.72934 2.37591 294 ft 0 kts 310°
2026-05-07 15:01 48.72931 2.37596 294 ft 0 kts 310°
2026-05-07 15:01 48.72921 2.37614 299 ft 6 kts 310°
2026-05-07 15:01 48.72911 2.37631 300 ft 6 kts 310°
2026-05-07 15:01 48.72905 2.37652 298 ft 0 kts 240°
2026-05-07 15:02 48.72908 2.37660 298 ft 1 kts 208°
2026-05-07 15:02 48.72856 2.37673 299 ft 12 kts 162°
2026-05-07 15:02 48.72746 2.37724 294 ft 19 kts 186°
2026-05-07 15:02 48.72670 2.37584 297 ft 18 kts 248°
2026-05-07 15:03 48.72636 2.37398 294 ft 22 kts 255°
2026-05-07 15:03 48.72594 2.37160 295 ft 23 kts 255°
2026-05-07 15:03 48.72551 2.36930 295 ft 22 kts 254°
2026-05-07 15:03 48.72510 2.36706 297 ft 22 kts 254°
2026-05-07 15:04 48.72468 2.36480 297 ft 26 kts 254°
2026-05-07 15:04 48.72383 2.36274 300 ft 21 kts 184°
2026-05-07 15:04 48.72247 2.36401 297 ft 25 kts 125°
2026-05-07 15:04 48.72145 2.36548 297 ft 17 kts 160°
2026-05-07 15:05 48.72092 2.36670 301 ft 16 kts 79°
2026-05-07 15:05 48.72151 2.36992 300 ft 69 kts 74°
2026-05-07 15:05 48.72356 2.38113 299 ft 148 kts 75°
2026-05-07 15:05 48.72662 2.39820 717 ft 186 kts 76°
2026-05-07 15:06 48.73021 2.41780 1747 ft 188 kts 73°
2026-05-07 15:06 48.73366 2.43637 3064 ft 177 kts 73°
2026-05-07 15:06 48.73694 2.45402 4033 ft 175 kts 73°
2026-05-07 15:06 48.74025 2.47318 4449 ft 204 kts 81°
2026-05-07 15:07 48.74155 2.49584 4698 ft 228 kts 86°
2026-05-07 15:07 48.74228 2.52079 5081 ft 243 kts 87°
2026-05-07 15:07 48.74304 2.54667 5663 ft 248 kts 88°
2026-05-07 15:07 48.74013 2.57250 6218 ft 257 kts 115°
2026-05-07 15:08 48.72846 2.59363 6649 ft 271 kts 147°
2026-05-07 15:08 48.71107 2.60492 7456 ft 273 kts 166°
2026-05-07 15:08 48.69250 2.61129 8354 ft 276 kts 169°
2026-05-07 15:08 48.67354 2.61721 9200 ft 281 kts 168°
2026-05-07 15:09 48.65429 2.62323 10066 ft 284 kts 173°
2026-05-07 15:09 48.63434 2.62163 10544 ft 299 kts 197°
2026-05-07 15:09 48.61454 2.60847 10782 ft 322 kts 207°
2026-05-07 15:09 48.59434 2.59247 11349 ft 333 kts 208°
2026-05-07 15:10 48.57380 2.57602 12159 ft 335 kts 208°
2026-05-07 15:10 48.55309 2.55962 12990 ft 338 kts 208°
2026-05-07 15:10 48.53209 2.54321 13795 ft 342 kts 208°
2026-05-07 15:10 48.51085 2.52678 14500 ft 345 kts 208°
2026-05-07 15:11 48.48934 2.51029 15211 ft 349 kts 206°
2026-05-07 15:11 48.46581 2.50057 15875 ft 357 kts 185°
2026-05-07 15:11 48.44098 2.50406 16594 ft 364 kts 166°
2026-05-07 15:11 48.41756 2.51919 17286 ft 369 kts 155°
2026-05-07 15:12 48.39466 2.53717 17951 ft 374 kts 154°
2026-05-07 15:12 48.37157 2.55572 18561 ft 379 kts 154°
2026-05-07 15:12 48.34815 2.57433 19163 ft 382 kts 154°
2026-05-07 15:12 48.32452 2.59277 19780 ft 384 kts 155°
2026-05-07 15:13 48.30062 2.61117 20369 ft 387 kts 155°
2026-05-07 15:13 48.27653 2.62963 20940 ft 391 kts 155°
2026-05-07 15:13 48.25219 2.64830 21500 ft 394 kts 155°
2026-05-07 15:13 48.22764 2.66715 22069 ft 398 kts 155°
2026-05-07 15:14 48.20295 2.68611 22619 ft 401 kts 155°
2026-05-07 15:14 48.17804 2.70523 23166 ft 404 kts 155°
2026-05-07 15:14 48.15290 2.72451 23682 ft 407 kts 155°
2026-05-07 15:14 48.12756 2.74391 24125 ft 410 kts 155°
2026-05-07 15:15 48.10239 2.76316 24582 ft 412 kts 155°
2026-05-07 15:15 48.07641 2.78280 25046 ft 414 kts 156°
2026-05-07 15:15 48.05043 2.80046 25472 ft 416 kts 159°
2026-05-07 15:15 48.02335 2.81759 25906 ft 419 kts 160°
2026-05-07 15:16 47.99642 2.83423 26317 ft 421 kts 160°
2026-05-07 15:16 47.96955 2.85083 26738 ft 424 kts 160°
2026-05-07 15:16 47.94229 2.86781 27134 ft 426 kts 159°
2026-05-07 15:16 47.91492 2.88499 27537 ft 429 kts 159°
2026-05-07 15:17 47.88735 2.90239 27923 ft 431 kts 159°
2026-05-07 15:17 47.85966 2.91990 28309 ft 434 kts 159°
2026-05-07 15:17 47.83179 2.93754 28680 ft 436 kts 159°
2026-05-07 15:17 47.80376 2.95526 29026 ft 439 kts 159°
2026-05-07 15:18 47.77556 2.97307 29370 ft 442 kts 159°
2026-05-07 15:18 47.74719 2.99097 29720 ft 444 kts 160°
2026-05-07 15:18 47.72796 3.00308 29949 ft 445 kts 160°
2026-05-07 15:18 47.69972 3.02085 30237 ft 448 kts 160°
2026-05-07 15:19 47.67097 3.03892 30512 ft 450 kts 160°
2026-05-07 15:19 47.64208 3.05706 30783 ft 452 kts 160°
2026-05-07 15:19 47.61310 3.07523 31045 ft 454 kts 160°
2026-05-07 15:19 47.58396 3.09349 31307 ft 455 kts 160°
2026-05-07 15:20 47.54488 3.11793 31743 ft 455 kts 160°
2026-05-07 15:20 47.52559 3.12998 32009 ft 454 kts 160°
2026-05-07 15:20 47.49656 3.14807 32409 ft 452 kts 160°
2026-05-07 15:20 47.46758 3.16610 32763 ft 452 kts 160°
2026-05-07 15:21 47.43861 3.18409 33079 ft 452 kts 160°
2026-05-07 15:21 47.40965 3.20206 33413 ft 451 kts 160°
2026-05-07 15:21 47.38080 3.21996 33774 ft 450 kts 160°
2026-05-07 15:21 47.35200 3.23780 34097 ft 449 kts 160°
2026-05-07 15:22 47.32320 3.25562 34340 ft 449 kts 161°
2026-05-07 15:22 47.29432 3.27346 34557 ft 450 kts 161°
2026-05-07 15:22 47.26548 3.29126 34801 ft 450 kts 161°
2026-05-07 15:22 47.23663 3.30905 35062 ft 449 kts 161°
2026-05-07 15:23 47.20779 3.32682 35298 ft 449 kts 161°
2026-05-07 15:23 47.17897 3.34455 35507 ft 450 kts 161°
2026-05-07 15:23 47.15013 3.36227 35754 ft 449 kts 161°
2026-05-07 15:23 47.12128 3.37998 36002 ft 449 kts 161°
2026-05-07 15:24 47.09245 3.39765 36233 ft 449 kts 161°
2026-05-07 15:24 47.06361 3.41531 36441 ft 449 kts 161°
2026-05-07 15:24 47.03478 3.43294 36652 ft 449 kts 161°
2026-05-07 15:24 47.00599 3.45053 36892 ft 448 kts 161°
2026-05-07 15:25 46.97721 3.46809 37104 ft 448 kts 161°
2026-05-07 15:25 46.94843 3.48563 37313 ft 448 kts 161°
2026-05-07 15:25 46.91967 3.50314 37526 ft 448 kts 161°
2026-05-07 15:25 46.89089 3.52064 37732 ft 448 kts 161°
2026-05-07 15:26 46.86209 3.53813 37931 ft 448 kts 161°
2026-05-07 15:26 46.83337 3.55556 38109 ft 448 kts 161°
2026-05-07 15:26 46.80458 3.57301 38293 ft 448 kts 161°
2026-05-07 15:26 46.77583 3.59041 38485 ft 447 kts 161°
2026-05-07 15:27 46.74724 3.60817 38658 ft 449 kts 156°
2026-05-07 15:27 46.72169 3.63487 38719 ft 459 kts 136°
2026-05-07 15:27 46.70234 3.67211 38821 ft 465 kts 120°
2026-05-07 15:27 46.69084 3.71633 38927 ft 470 kts 106°
2026-05-07 15:28 46.67610 3.80940 38996 ft 474 kts 105°
2026-05-07 15:28 46.66088 3.90234 38994 ft 475 kts 106°
2026-05-07 15:29 46.64454 3.99628 38999 ft 476 kts 107°
2026-05-07 15:29 46.62828 4.08983 38998 ft 477 kts 106°
2026-05-07 15:30 46.61199 4.18338 38993 ft 477 kts 107°
2026-05-07 15:30 46.59564 4.27692 38995 ft 477 kts 107°
2026-05-07 15:31 46.57934 4.36960 38996 ft 476 kts 107°
2026-05-07 15:31 46.56288 4.46268 39001 ft 475 kts 107°
2026-05-07 15:32 46.54626 4.55618 38994 ft 474 kts 107°
2026-05-07 15:32 46.52971 4.64879 39000 ft 473 kts 107°
2026-05-07 15:33 46.51322 4.74059 39000 ft 473 kts 107°
2026-05-07 15:33 46.49657 4.83283 38998 ft 472 kts 107°
2026-05-07 15:34 46.47987 4.92492 38998 ft 472 kts 107°
2026-05-07 15:34 46.46309 5.01701 39004 ft 472 kts 107°
2026-05-07 15:35 46.44624 5.10900 39003 ft 473 kts 107°
2026-05-07 15:35 46.42913 5.20115 39000 ft 473 kts 107°
2026-05-07 15:36 46.41192 5.29332 39010 ft 474 kts 108°
2026-05-07 15:36 46.39464 5.38565 39006 ft 475 kts 108°
2026-05-07 15:37 46.37733 5.47809 39003 ft 476 kts 107°
2026-05-07 15:37 46.36008 5.57094 39005 ft 478 kts 107°
2026-05-07 15:38 46.34276 5.66381 39000 ft 478 kts 107°
2026-05-07 15:38 46.32533 5.75668 38987 ft 479 kts 108°
2026-05-07 15:39 46.30779 5.84964 38991 ft 479 kts 108°
2026-05-07 15:39 46.29019 5.94248 38983 ft 479 kts 108°
2026-05-07 15:40 46.27252 6.03526 38993 ft 478 kts 108°
2026-05-07 15:40 46.25475 6.12784 38990 ft 477 kts 109°
2026-05-07 15:41 46.23196 6.21745 39004 ft 474 kts 115°
2026-05-07 15:41 46.20666 6.30537 38991 ft 474 kts 115°
2026-05-07 15:42 46.18394 6.38484 38989 ft 474 kts 115°
2026-05-07 15:42 46.15916 6.47295 38986 ft 474 kts 115°
2026-05-07 15:43 46.13450 6.56104 38990 ft 474 kts 115°
2026-05-07 15:43 46.10988 6.64870 38986 ft 475 kts 115°
2026-05-07 15:44 46.08501 6.73683 38988 ft 475 kts 115°
2026-05-07 15:44 46.06000 6.82510 38989 ft 476 kts 115°
2026-05-07 15:45 46.03524 6.91220 38988 ft 476 kts 115°
2026-05-07 15:45 46.01014 7.00018 38978 ft 476 kts 115°
2026-05-07 15:46 45.97231 7.13226 38982 ft 476 kts 115°
2026-05-07 15:47 45.96400 7.16144 38965 ft 477 kts 114°